owner,sensor,date,latitude,longitude,vertical_datum,direction_of_sea_water_velocity,sea_water_speed,upward_sea_water_velocity,qcFlag 
TABS,ioos:station:wmo:42045:1,2013-08-01T00:00:00Z,26.2168,-96.4998,2.0,9.57861098,47.05601874,-99999.0,'11111222,11111222,99999999' 
TABS,ioos:station:wmo:42045:1,2013-08-01T00:30:00Z,26.2168,-96.4998,2.0,13.12988295,47.3682858,-99999.0,'11111222,11111222,99999999' 
TABS,ioos:station:wmo:42045:1,2013-08-01T01:00:00Z,26.2168,-96.4998,2.0,7.498604833,46.82038552,-99999.0,'11111222,11111222,99999999' 
TABS,ioos:station:wmo:42045:1,2013-08-01T01:30:00Z,26.2168,-96.4998,2.0,5.531518577,48.65656174,-99999.0,'11111222,11111222,99999999' 
TABS,ioos:station:wmo:42045:1,2013-08-01T02:00:00Z,26.2168,-96.4998,2.0,9.169884231,34.76426326,-99999.0,'11111222,11111222,99999999' 
TABS,ioos:station:wmo:42045:1,2013-08-01T02:30:00Z,26.2168,-96.4998,2.0,15.72385714,50.40620993,-99999.0,'11111222,11111222,99999999' 
TABS,ioos:station:wmo:42045:1,2013-08-01T03:00:00Z,26.2168,-96.4998,2.0,8.589028814,51.22445705,-99999.0,'11111222,11111222,99999999' 
TABS,ioos:station:wmo:42045:1,2013-08-01T03:30:00Z,26.2168,-96.4998,2.0,6.421087065,54.09935397,-99999.0,'11111222,11111222,99999999' 
TABS,ioos:station:wmo:42045:1,2013-08-01T04:00:00Z,26.2168,-96.4998,2.0,5.218262866,54.86738284,-99999.0,'11111222,11111222,99999999' 
TABS,ioos:station:wmo:42045:1,2013-08-01T04:30:00Z,26.2168,-96.4998,2.0,5.958674242,55.19821465,-99999.0,'11111222,11111222,99999999' 
TABS,ioos:station:wmo:42045:1,2013-08-01T05:00:00Z,26.2168,-96.4998,2.0,9.533420956,54.46213822,-99999.0,'11111222,11111222,99999999' 
TABS,ioos:station:wmo:42045:1,2013-08-01T05:30:00Z,26.2168,-96.4998,2.0,8.950351105,57.01420262,-99999.0,'11111222,11111222,99999999' 
TABS,ioos:station:wmo:42045:1,2013-08-01T06:00:00Z,26.2168,-96.4998,2.0,3.669727591,63.27973609,-99999.0,'11111222,11111222,99999999' 
TABS,ioos:station:wmo:42045:1,2013-08-01T06:30:00Z,26.2168,-96.4998,2.0,5.071812289,65.04465082,-99999.0,'11111222,11111222,99999999' 
TABS,ioos:station:wmo:42045:1,2013-08-01T07:00:00Z,26.2168,-96.4998,2.0,6.116588194,68.70108078,-99999.0,'11111222,11111222,99999999' 
TABS,ioos:station:wmo:42045:1,2013-08-01T07:30:00Z,26.2168,-96.4998,2.0,9.784824647,69.84601492,-99999.0,'11111222,11111222,99999999' 
TABS,ioos:station:wmo:42045:1,2013-08-01T08:00:00Z,26.2168,-96.4998,2.0,12.10086772,67.4997963,-99999.0,'11111222,11111222,99999999' 
TABS,ioos:station:wmo:42045:1,2013-08-01T08:30:00Z,26.2168,-96.4998,2.0,12.13430536,69.12436112,-99999.0,'11111222,11111222,99999999' 
TABS,ioos:station:wmo:42045:1,2013-08-01T09:00:00Z,26.2168,-96.4998,2.0,12.76097977,67.77396919,-99999.0,'11111222,11111222,99999999' 
TABS,ioos:station:wmo:42045:1,2013-08-01T09:30:00Z,26.2168,-96.4998,2.0,14.90950922,66.85057965,-99999.0,'11111222,11111222,99999999' 
TABS,ioos:station:wmo:42045:1,2013-08-01T10:00:00Z,26.2168,-96.4998,2.0,13.26873078,67.88211326,-99999.0,'11111222,11111222,99999999' 
TABS,ioos:station:wmo:42045:1,2013-08-01T10:30:00Z,26.2168,-96.4998,2.0,16.27290093,65.87920157,-99999.0,'11111222,11111222,99999999' 
TABS,ioos:station:wmo:42045:1,2013-08-01T11:00:00Z,26.2168,-96.4998,2.0,15.84793028,68.51417518,-99999.0,'11111222,11111222,99999999' 
TABS,ioos:station:wmo:42045:1,2013-08-01T11:30:00Z,26.2168,-96.4998,2.0,16.41830261,65.59464917,-99999.0,'11111222,11111222,99999999' 
TABS,ioos:station:wmo:42045:1,2013-08-01T12:00:00Z,26.2168,-96.4998,2.0,19.99298771,65.48651541,-99999.0,'11111222,11111222,99999999' 
TABS,ioos:station:wmo:42045:1,2013-08-01T12:30:00Z,26.2168,-96.4998,2.0,20.87800349,61.05898869,-99999.0,'11111222,11111222,99999999' 
TABS,ioos:station:wmo:42045:1,2013-08-01T13:00:00Z,26.2168,-96.4998,2.0,21.4599421,61.66494709,-99999.0,'11111222,11111222,99999999' 
TABS,ioos:station:wmo:42045:1,2013-08-01T13:30:00Z,26.2168,-96.4998,2.0,22.17244613,56.22786942,-99999.0,'11111222,11111222,99999999' 
TABS,ioos:station:wmo:42045:1,2013-08-01T14:00:00Z,26.2168,-96.4998,2.0,23.11258374,54.13507735,-99999.0,'11111222,11111222,99999999' 
TABS,ioos:station:wmo:42045:1,2013-08-01T14:30:00Z,26.2168,-96.4998,2.0,21.99108215,49.40451498,-99999.0,'11111222,11111222,99999999' 
TABS,ioos:station:wmo:42045:1,2013-08-01T15:00:00Z,26.2168,-96.4998,2.0,22.2455638,33.30917291,-99999.0,'11111222,11111222,99999999' 
TABS,ioos:station:wmo:42045:1,2013-08-01T15:30:00Z,26.2168,-96.4998,2.0,23.64517656,37.7491192,-99999.0,'11111222,11111222,99999999' 
TABS,ioos:station:wmo:42045:1,2013-08-01T16:00:00Z,26.2168,-96.4998,2.0,27.88389143,46.2496627,-99999.0,'11111222,11111222,99999999' 
TABS,ioos:station:wmo:42045:1,2013-08-01T16:30:00Z,26.2168,-96.4998,2.0,27.22428222,43.54359654,-99999.0,'11111222,11111222,99999999' 
TABS,ioos:station:wmo:42045:1,2013-08-01T17:00:00Z,26.2168,-96.4998,2.0,25.74319266,23.6913423,-99999.0,'11111222,11111222,99999999' 
TABS,ioos:station:wmo:42045:1,2013-08-01T17:30:00Z,26.2168,-96.4998,2.0,21.06977743,20.50058048,-99999.0,'11111222,11111222,99999999' 
TABS,ioos:station:wmo:42045:1,2013-08-01T18:00:00Z,26.2168,-96.4998,2.0,22.76967105,37.69782089,-99999.0,'11111222,11111222,99999999' 
TABS,ioos:station:wmo:42045:1,2013-08-01T18:30:00Z,26.2168,-96.4998,2.0,26.02013886,28.67663334,-99999.0,'11111222,11111222,99999999' 
TABS,ioos:station:wmo:42045:1,2013-08-01T19:00:00Z,26.2168,-96.4998,2.0,24.40956426,30.19934436,-99999.0,'11111222,11111222,99999999' 
TABS,ioos:station:wmo:42045:1,2013-08-01T19:30:00Z,26.2168,-96.4998,2.0,31.15868864,30.26624522,-99999.0,'11111222,11111222,99999999' 
TABS,ioos:station:wmo:42045:1,2013-08-01T20:00:00Z,26.2168,-96.4998,2.0,29.92529107,26.01889506,-99999.0,'11111222,11111222,99999999' 
TABS,ioos:station:wmo:42045:1,2013-08-01T20:30:00Z,26.2168,-96.4998,2.0,30.12638931,6.335834594,-99999.0,'11133222,11111222,99999999' 
TABS,ioos:station:wmo:42045:1,2013-08-01T21:00:00Z,26.2168,-96.4998,2.0,26.16254969,10.81836402,-99999.0,'11111222,11111222,99999999' 
TABS,ioos:station:wmo:42045:1,2013-08-01T21:30:00Z,26.2168,-96.4998,2.0,2.574649896,29.60988517,-99999.0,'11111222,11111222,99999999' 
TABS,ioos:station:wmo:42045:1,2013-08-01T22:00:00Z,26.2168,-96.4998,2.0,357.4793884,41.3800435,-99999.0,'11111222,11111222,99999999' 
TABS,ioos:station:wmo:42045:1,2013-08-01T22:30:00Z,26.2168,-96.4998,2.0,12.2032659,34.72461951,-99999.0,'11111222,11111222,99999999' 
TABS,ioos:station:wmo:42045:1,2013-08-01T23:00:00Z,26.2168,-96.4998,2.0,8.600445204,37.91634212,-99999.0,'11111222,11111222,99999999' 
TABS,ioos:station:wmo:42045:1,2013-08-01T23:30:00Z,26.2168,-96.4998,2.0,6.697746772,49.044699,-99999.0,'11111222,11111222,99999999' 
TABS,ioos:station:wmo:42045:1,2013-08-02T00:00:00Z,26.2168,-96.4998,2.0,7.317945032,53.46547484,-99999.0,'11111222,11111222,99999999' 
TABS,ioos:station:wmo:42045:1,2013-08-02T00:30:00Z,26.2168,-96.4998,2.0,10.67804137,70.75516236,-99999.0,'11111222,11111222,99999999' 
TABS,ioos:station:wmo:42045:1,2013-08-02T01:00:00Z,26.2168,-96.4998,2.0,12.43317398,72.64360399,-99999.0,'11111222,11111222,99999999' 
TABS,ioos:station:wmo:42045:1,2013-08-02T01:30:00Z,26.2168,-96.4998,2.0,5.401078114,68.84563893,-99999.0,'11111222,11111222,99999999' 
TABS,ioos:station:wmo:42045:1,2013-08-02T02:00:00Z,26.2168,-96.4998,2.0,12.17430727,74.11679567,-99999.0,'11111222,11111222,99999999' 
TABS,ioos:station:wmo:42045:1,2013-08-02T02:30:00Z,26.2168,-96.4998,2.0,11.79700816,67.15847303,-99999.0,'11111222,11111222,99999999' 
TABS,ioos:station:wmo:42045:1,2013-08-02T03:00:00Z,26.2168,-96.4998,2.0,10.79974518,73.75632109,-99999.0,'11111222,11111222,99999999' 
TABS,ioos:station:wmo:42045:1,2013-08-02T03:30:00Z,26.2168,-96.4998,2.0,8.994436461,71.64089335,-99999.0,'11111222,11111222,99999999' 
TABS,ioos:station:wmo:42045:1,2013-08-02T04:00:00Z,26.2168,-96.4998,2.0,9.020886374,71.87901641,-99999.0,'11111222,11111222,99999999' 
TABS,ioos:station:wmo:42045:1,2013-08-02T04:30:00Z,26.2168,-96.4998,2.0,8.97497534,68.97444817,-99999.0,'11111222,11111222,99999999' 
TABS,ioos:station:wmo:42045:1,2013-08-02T05:00:00Z,26.2168,-96.4998,2.0,3.254090377,66.94793201,-99999.0,'11111222,11111222,99999999' 
TABS,ioos:station:wmo:42045:1,2013-08-02T05:30:00Z,26.2168,-96.4998,2.0,5.689585643,69.90435251,-99999.0,'11111222,11111222,99999999' 
TABS,ioos:station:wmo:42045:1,2013-08-02T06:00:00Z,26.2168,-96.4998,2.0,4.109265151,69.6390099,-99999.0,'11111222,11111222,99999999' 
TABS,ioos:station:wmo:42045:1,2013-08-02T06:30:00Z,26.2168,-96.4998,2.0,3.134542366,69.86451174,-99999.0,'11111222,11111222,99999999' 
TABS,ioos:station:wmo:42045:1,2013-08-02T07:00:00Z,26.2168,-96.4998,2.0,7.247210614,65.24117795,-99999.0,'11111222,11111222,99999999' 
TABS,ioos:station:wmo:42045:1,2013-08-02T07:30:00Z,26.2168,-96.4998,2.0,8.413558547,66.36419667,-99999.0,'11111222,11111222,99999999' 
TABS,ioos:station:wmo:42045:1,2013-08-02T08:00:00Z,26.2168,-96.4998,2.0,8.960499451,65.29685214,-99999.0,'11111222,11111222,99999999' 
TABS,ioos:station:wmo:42045:1,2013-08-02T08:30:00Z,26.2168,-96.4998,2.0,9.591468053,68.65976697,-99999.0,'11111222,11111222,99999999' 
TABS,ioos:station:wmo:42045:1,2013-08-02T09:00:00Z,26.2168,-96.4998,2.0,9.788416244,70.23238356,-99999.0,'11111222,11111222,99999999' 
TABS,ioos:station:wmo:42045:1,2013-08-02T09:30:00Z,26.2168,-96.4998,2.0,10.58080428,73.03172051,-99999.0,'11111222,11111222,99999999' 
TABS,ioos:station:wmo:42045:1,2013-08-02T10:00:00Z,26.2168,-96.4998,2.0,12.7328362,69.50929722,-99999.0,'11111222,11111222,99999999' 
TABS,ioos:station:wmo:42045:1,2013-08-02T10:30:00Z,26.2168,-96.4998,2.0,15.19582735,67.60366854,-99999.0,'11111222,11111222,99999999' 
TABS,ioos:station:wmo:42045:1,2013-08-02T11:00:00Z,26.2168,-96.4998,2.0,15.95257671,67.38497236,-99999.0,'11111222,11111222,99999999' 
TABS,ioos:station:wmo:42045:1,2013-08-02T11:30:00Z,26.2168,-96.4998,2.0,12.78378146,63.90400613,-99999.0,'11111222,11111222,99999999' 
TABS,ioos:station:wmo:42045:1,2013-08-02T12:00:00Z,26.2168,-96.4998,2.0,14.40624254,65.75762845,-99999.0,'11111222,11111222,99999999' 
TABS,ioos:station:wmo:42045:1,2013-08-02T12:30:00Z,26.2168,-96.4998,2.0,16.16827313,66.43768584,-99999.0,'11111222,11111222,99999999' 
TABS,ioos:station:wmo:42045:1,2013-08-02T13:00:00Z,26.2168,-96.4998,2.0,18.4952856,63.23610124,-99999.0,'11111222,11111222,99999999' 
TABS,ioos:station:wmo:42045:1,2013-08-02T13:30:00Z,26.2168,-96.4998,2.0,21.30639595,59.08860635,-99999.0,'11111222,11111222,99999999' 
TABS,ioos:station:wmo:42045:1,2013-08-02T14:00:00Z,26.2168,-96.4998,2.0,23.37415256,53.1846068,-99999.0,'11111222,11111222,99999999' 
TABS,ioos:station:wmo:42045:1,2013-08-02T14:30:00Z,26.2168,-96.4998,2.0,19.25131641,52.83437139,-99999.0,'11111222,11111222,99999999' 
TABS,ioos:station:wmo:42045:1,2013-08-02T15:00:00Z,26.2168,-96.4998,2.0,23.63341254,59.19464334,-99999.0,'11111222,11111222,99999999' 
TABS,ioos:station:wmo:42045:1,2013-08-02T15:30:00Z,26.2168,-96.4998,2.0,18.85004419,52.40031488,-99999.0,'11111222,11111222,99999999' 
TABS,ioos:station:wmo:42045:1,2013-08-02T16:00:00Z,26.2168,-96.4998,2.0,20.32483404,51.88008192,-99999.0,'11111222,11111222,99999999' 
TABS,ioos:station:wmo:42045:1,2013-08-02T16:30:00Z,26.2168,-96.4998,2.0,18.78814758,52.3493381,-99999.0,'11111222,11111222,99999999' 
TABS,ioos:station:wmo:42045:1,2013-08-02T17:00:00Z,26.2168,-96.4998,2.0,18.45821615,47.06101996,-99999.0,'11111222,11111222,99999999' 
TABS,ioos:station:wmo:42045:1,2013-08-02T17:30:00Z,26.2168,-96.4998,2.0,14.1883043,43.00171741,-99999.0,'11111222,11111222,99999999' 
TABS,ioos:station:wmo:42045:1,2013-08-02T18:00:00Z,26.2168,-96.4998,2.0,13.42201414,43.42607512,-99999.0,'11111222,11111222,99999999' 
TABS,ioos:station:wmo:42045:1,2013-08-02T18:30:00Z,26.2168,-96.4998,2.0,10.55337731,43.95345948,-99999.0,'11111222,11111222,99999999' 
TABS,ioos:station:wmo:42045:1,2013-08-02T19:00:00Z,26.2168,-96.4998,2.0,6.187838644,35.25538966,-99999.0,'11111222,11111222,99999999' 
TABS,ioos:station:wmo:42045:1,2013-08-02T19:30:00Z,26.2168,-96.4998,2.0,358.2166098,17.02825006,-99999.0,'11111222,11111222,99999999' 
TABS,ioos:station:wmo:42045:1,2013-08-02T20:00:00Z,26.2168,-96.4998,2.0,354.6495928,51.4742897,-99999.0,'11111222,11111222,99999999' 
TABS,ioos:station:wmo:42045:1,2013-08-02T20:30:00Z,26.2168,-96.4998,2.0,358.2905588,53.96402227,-99999.0,'11111222,11111222,99999999' 
TABS,ioos:station:wmo:42045:1,2013-08-02T21:00:00Z,26.2168,-96.4998,2.0,3.998131331,54.93367728,-99999.0,'11111222,11111222,99999999' 
TABS,ioos:station:wmo:42045:1,2013-08-02T21:30:00Z,26.2168,-96.4998,2.0,5.651742546,58.89628257,-99999.0,'11111222,11111222,99999999' 
TABS,ioos:station:wmo:42045:1,2013-08-02T22:00:00Z,26.2168,-96.4998,2.0,7.011160741,64.80455617,-99999.0,'11111222,11111222,99999999' 
TABS,ioos:station:wmo:42045:1,2013-08-02T22:30:00Z,26.2168,-96.4998,2.0,6.311587267,72.49941034,-99999.0,'11111222,11111222,99999999' 
TABS,ioos:station:wmo:42045:1,2013-08-02T23:00:00Z,26.2168,-96.4998,2.0,4.946914309,73.29299284,-99999.0,'11111222,11111222,99999999' 
TABS,ioos:station:wmo:42045:1,2013-08-02T23:30:00Z,26.2168,-96.4998,2.0,9.363276273,57.90141017,-99999.0,'11111222,11111222,99999999' 
TABS,ioos:station:wmo:42045:1,2013-08-03T00:00:00Z,26.2168,-96.4998,2.0,1.779182824,60.5591884,-99999.0,'11111222,11111222,99999999' 
TABS,ioos:station:wmo:42045:1,2013-08-03T00:30:00Z,26.2168,-96.4998,2.0,5.588685891,59.76405943,-99999.0,'11111222,11111222,99999999' 
TABS,ioos:station:wmo:42045:1,2013-08-03T01:00:00Z,26.2168,-96.4998,2.0,4.474044968,61.40710464,-99999.0,'11111222,11111222,99999999' 
TABS,ioos:station:wmo:42045:1,2013-08-03T01:30:00Z,26.2168,-96.4998,2.0,10.91549523,63.21365201,-99999.0,'11111222,11111222,99999999' 
TABS,ioos:station:wmo:42045:1,2013-08-03T02:00:00Z,26.2168,-96.4998,2.0,8.605105469,68.77415285,-99999.0,'11111222,11111222,99999999' 
TABS,ioos:station:wmo:42045:1,2013-08-03T02:30:00Z,26.2168,-96.4998,2.0,15.86776438,67.77239113,-99999.0,'11111222,11111222,99999999' 
TABS,ioos:station:wmo:42045:1,2013-08-03T03:00:00Z,26.2168,-96.4998,2.0,12.58587073,67.73765349,-99999.0,'11111222,11111222,99999999' 
TABS,ioos:station:wmo:42045:1,2013-08-03T03:30:00Z,26.2168,-96.4998,2.0,10.46681635,72.22170588,-99999.0,'11111222,11111222,99999999' 
TABS,ioos:station:wmo:42045:1,2013-08-03T04:00:00Z,26.2168,-96.4998,2.0,10.31847952,72.41103852,-99999.0,'11111222,11111222,99999999' 
TABS,ioos:station:wmo:42045:1,2013-08-03T04:30:00Z,26.2168,-96.4998,2.0,7.633849273,71.81646051,-99999.0,'11111222,11111222,99999999' 
TABS,ioos:station:wmo:42045:1,2013-08-03T05:00:00Z,26.2168,-96.4998,2.0,7.681018129,68.53489622,-99999.0,'11111222,11111222,99999999' 
TABS,ioos:station:wmo:42045:1,2013-08-03T05:30:00Z,26.2168,-96.4998,2.0,10.52144381,67.96264047,-99999.0,'11111222,11111222,99999999' 
TABS,ioos:station:wmo:42045:1,2013-08-03T06:00:00Z,26.2168,-96.4998,2.0,5.923163462,66.57541063,-99999.0,'11111222,11111222,99999999' 
TABS,ioos:station:wmo:42045:1,2013-08-03T06:30:00Z,26.2168,-96.4998,2.0,10.80478979,81.83067884,-99999.0,'11111222,11111222,99999999' 
TABS,ioos:station:wmo:42045:1,2013-08-03T07:00:00Z,26.2168,-96.4998,2.0,8.806220129,83.67635389,-99999.0,'11111222,11111222,99999999' 
TABS,ioos:station:wmo:42045:1,2013-08-03T07:30:00Z,26.2168,-96.4998,2.0,11.75201037,85.18557683,-99999.0,'11111222,11111222,99999999' 
TABS,ioos:station:wmo:42045:1,2013-08-03T08:00:00Z,26.2168,-96.4998,2.0,12.87907444,86.0958826,-99999.0,'11111222,11111222,99999999' 
TABS,ioos:station:wmo:42045:1,2013-08-03T08:30:00Z,26.2168,-96.4998,2.0,15.86594941,85.00841429,-99999.0,'11111222,11111222,99999999' 
TABS,ioos:station:wmo:42045:1,2013-08-03T09:00:00Z,26.2168,-96.4998,2.0,13.4134901,85.44064899,-99999.0,'11111222,11111222,99999999' 
TABS,ioos:station:wmo:42045:1,2013-08-03T09:30:00Z,26.2168,-96.4998,2.0,14.86730347,84.96431251,-99999.0,'11111222,11111222,99999999' 
TABS,ioos:station:wmo:42045:1,2013-08-03T10:00:00Z,26.2168,-96.4998,2.0,15.20565211,90.09406473,-99999.0,'11111222,11111222,99999999' 
TABS,ioos:station:wmo:42045:1,2013-08-03T10:30:00Z,26.2168,-96.4998,2.0,14.44815473,93.82732917,-99999.0,'11111222,11111222,99999999' 
TABS,ioos:station:wmo:42045:1,2013-08-03T11:00:00Z,26.2168,-96.4998,2.0,15.82844918,92.0606159,-99999.0,'11111222,11111222,99999999' 
TABS,ioos:station:wmo:42045:1,2013-08-03T11:30:00Z,26.2168,-96.4998,2.0,19.94621076,88.49865649,-99999.0,'11111222,11111222,99999999' 
TABS,ioos:station:wmo:42045:1,2013-08-03T12:00:00Z,26.2168,-96.4998,2.0,15.79859798,91.568974,-99999.0,'11111222,11111222,99999999' 
TABS,ioos:station:wmo:42045:1,2013-08-03T12:30:00Z,26.2168,-96.4998,2.0,16.44246422,89.48965192,-99999.0,'11111222,11111222,99999999' 
TABS,ioos:station:wmo:42045:1,2013-08-03T13:00:00Z,26.2168,-96.4998,2.0,18.36743321,91.01673912,-99999.0,'11111222,11111222,99999999' 
TABS,ioos:station:wmo:42045:1,2013-08-03T13:30:00Z,26.2168,-96.4998,2.0,15.60214898,88.23102232,-99999.0,'11111222,11111222,99999999' 
TABS,ioos:station:wmo:42045:1,2013-08-03T14:00:00Z,26.2168,-96.4998,2.0,15.20821409,85.39039759,-99999.0,'11111222,11111222,99999999' 
TABS,ioos:station:wmo:42045:1,2013-08-03T14:30:00Z,26.2168,-96.4998,2.0,17.49486458,89.41595383,-99999.0,'11111222,11111222,99999999' 
TABS,ioos:station:wmo:42045:1,2013-08-03T15:00:00Z,26.2168,-96.4998,2.0,15.72119039,91.89766918,-99999.0,'11111222,11111222,99999999' 
TABS,ioos:station:wmo:42045:1,2013-08-03T15:30:00Z,26.2168,-96.4998,2.0,15.61969337,93.22262815,-99999.0,'11111222,11111222,99999999' 
TABS,ioos:station:wmo:42045:1,2013-08-03T16:00:00Z,26.2168,-96.4998,2.0,17.45781842,85.09978437,-99999.0,'11111222,11111222,99999999' 
TABS,ioos:station:wmo:42045:1,2013-08-03T16:30:00Z,26.2168,-96.4998,2.0,15.54419231,86.27553999,-99999.0,'11111222,11111222,99999999' 
TABS,ioos:station:wmo:42045:1,2013-08-03T17:00:00Z,26.2168,-96.4998,2.0,14.51094379,89.31923253,-99999.0,'11111222,11111222,99999999' 
TABS,ioos:station:wmo:42045:1,2013-08-03T17:30:00Z,26.2168,-96.4998,2.0,17.73121639,92.92421697,-99999.0,'11111222,11111222,99999999' 
TABS,ioos:station:wmo:42045:1,2013-08-03T18:00:00Z,26.2168,-96.4998,2.0,17.21574017,91.83436612,-99999.0,'11111222,11111222,99999999' 
TABS,ioos:station:wmo:42045:1,2013-08-03T18:30:00Z,26.2168,-96.4998,2.0,15.64009259,94.81035597,-99999.0,'11111222,11111222,99999999' 
TABS,ioos:station:wmo:42045:1,2013-08-03T19:00:00Z,26.2168,-96.4998,2.0,18.39648122,89.10351789,-99999.0,'11111222,11111222,99999999' 
TABS,ioos:station:wmo:42045:1,2013-08-03T19:30:00Z,26.2168,-96.4998,2.0,16.20790509,89.10123737,-99999.0,'11111222,11111222,99999999' 
TABS,ioos:station:wmo:42045:1,2013-08-03T20:00:00Z,26.2168,-96.4998,2.0,19.05616586,86.64833582,-99999.0,'11111222,11111222,99999999' 
TABS,ioos:station:wmo:42045:1,2013-08-03T20:30:00Z,26.2168,-96.4998,2.0,16.91093262,85.36110238,-99999.0,'11111222,11111222,99999999' 
TABS,ioos:station:wmo:42045:1,2013-08-03T21:00:00Z,26.2168,-96.4998,2.0,16.19236443,83.23165864,-99999.0,'11111222,11111222,99999999' 
TABS,ioos:station:wmo:42045:1,2013-08-03T21:30:00Z,26.2168,-96.4998,2.0,15.45148165,82.98947042,-99999.0,'11111222,11111222,99999999' 
TABS,ioos:station:wmo:42045:1,2013-08-03T22:00:00Z,26.2168,-96.4998,2.0,17.08867156,79.93915311,-99999.0,'11111222,11111222,99999999' 
TABS,ioos:station:wmo:42045:1,2013-08-03T22:30:00Z,26.2168,-96.4998,2.0,16.38352331,73.13976894,-99999.0,'11111222,11111222,99999999' 
TABS,ioos:station:wmo:42045:1,2013-08-03T23:00:00Z,26.2168,-96.4998,2.0,12.11662997,53.50185978,-99999.0,'11111222,11111222,99999999' 
TABS,ioos:station:wmo:42045:1,2013-08-03T23:30:00Z,26.2168,-96.4998,2.0,12.52104805,70.43515103,-99999.0,'11111222,11111222,99999999' 
TABS,ioos:station:wmo:42045:1,2013-08-04T00:00:00Z,26.2168,-96.4998,2.0,9.699523549,63.98463331,-99999.0,'11111222,11111222,99999999' 
TABS,ioos:station:wmo:42045:1,2013-08-04T00:30:00Z,26.2168,-96.4998,2.0,13.63863873,69.17040191,-99999.0,'11111222,11111222,99999999' 
TABS,ioos:station:wmo:42045:1,2013-08-04T01:00:00Z,26.2168,-96.4998,2.0,6.307008609,64.45005818,-99999.0,'11111222,11111222,99999999' 
TABS,ioos:station:wmo:42045:1,2013-08-04T01:30:00Z,26.2168,-96.4998,2.0,5.634033632,53.47832178,-99999.0,'11111222,11111222,99999999' 
TABS,ioos:station:wmo:42045:1,2013-08-04T02:00:00Z,26.2168,-96.4998,2.0,7.475854869,68.09882525,-99999.0,'11111222,11111222,99999999' 
TABS,ioos:station:wmo:42045:1,2013-08-04T02:30:00Z,26.2168,-96.4998,2.0,8.047431958,72.36255523,-99999.0,'11111222,11111222,99999999' 
TABS,ioos:station:wmo:42045:1,2013-08-04T03:00:00Z,26.2168,-96.4998,2.0,6.054016085,69.59813,-99999.0,'11111222,11111222,99999999' 
TABS,ioos:station:wmo:42045:1,2013-08-04T03:30:00Z,26.2168,-96.4998,2.0,4.228321185,71.61490627,-99999.0,'11111222,11111222,99999999' 
TABS,ioos:station:wmo:42045:1,2013-08-04T04:00:00Z,26.2168,-96.4998,2.0,3.595419847,71.92154406,-99999.0,'11111222,11111222,99999999' 
TABS,ioos:station:wmo:42045:1,2013-08-04T04:30:00Z,26.2168,-96.4998,2.0,5.704851815,67.20282211,-99999.0,'11111222,11111222,99999999' 
TABS,ioos:station:wmo:42045:1,2013-08-04T05:00:00Z,26.2168,-96.4998,2.0,3.791773962,67.74828706,-99999.0,'11111222,11111222,99999999' 
TABS,ioos:station:wmo:42045:1,2013-08-04T05:30:00Z,26.2168,-96.4998,2.0,4.6303406,63.79820217,-99999.0,'11111222,11111222,99999999' 
TABS,ioos:station:wmo:42045:1,2013-08-04T06:00:00Z,26.2168,-96.4998,2.0,3.414934992,69.00251082,-99999.0,'11111222,11111222,99999999' 
TABS,ioos:station:wmo:42045:1,2013-08-04T06:30:00Z,26.2168,-96.4998,2.0,7.628929308,77.7380531,-99999.0,'11111222,11111222,99999999' 
TABS,ioos:station:wmo:42045:1,2013-08-04T07:00:00Z,26.2168,-96.4998,2.0,9.848139441,70.10295999,-99999.0,'11111222,11111222,99999999' 
TABS,ioos:station:wmo:42045:1,2013-08-04T07:30:00Z,26.2168,-96.4998,2.0,11.12481427,72.76731134,-99999.0,'11111222,11111222,99999999' 
TABS,ioos:station:wmo:42045:1,2013-08-04T08:00:00Z,26.2168,-96.4998,2.0,9.726086303,76.83432371,-99999.0,'11111222,11111222,99999999' 
TABS,ioos:station:wmo:42045:1,2013-08-04T08:30:00Z,26.2168,-96.4998,2.0,12.33339685,71.48984893,-99999.0,'11111222,11111222,99999999' 
TABS,ioos:station:wmo:42045:1,2013-08-04T09:00:00Z,26.2168,-96.4998,2.0,9.012550855,78.71173038,-99999.0,'11111222,11111222,99999999' 
TABS,ioos:station:wmo:42045:1,2013-08-04T09:30:00Z,26.2168,-96.4998,2.0,12.04275744,75.9208015,-99999.0,'11111222,11111222,99999999' 
TABS,ioos:station:wmo:42045:1,2013-08-04T10:00:00Z,26.2168,-96.4998,2.0,12.36130789,78.57146365,-99999.0,'11111222,11111222,99999999' 
TABS,ioos:station:wmo:42045:1,2013-08-04T10:30:00Z,26.2168,-96.4998,2.0,15.63254537,80.45603023,-99999.0,'11111222,11111222,99999999' 
TABS,ioos:station:wmo:42045:1,2013-08-04T11:00:00Z,26.2168,-96.4998,2.0,13.3762017,83.77251578,-99999.0,'11111222,11111222,99999999' 
TABS,ioos:station:wmo:42045:1,2013-08-04T11:30:00Z,26.2168,-96.4998,2.0,13.30682199,80.37797211,-99999.0,'11111222,11111222,99999999' 
TABS,ioos:station:wmo:42045:1,2013-08-04T12:00:00Z,26.2168,-96.4998,2.0,12.32066811,86.51243841,-99999.0,'11111222,11111222,99999999' 
TABS,ioos:station:wmo:42045:1,2013-08-04T12:30:00Z,26.2168,-96.4998,2.0,12.15307521,75.71686734,-99999.0,'11111222,11111222,99999999' 
TABS,ioos:station:wmo:42045:1,2013-08-04T13:00:00Z,26.2168,-96.4998,2.0,13.59885123,76.85450475,-99999.0,'11111222,11111222,99999999' 
TABS,ioos:station:wmo:42045:1,2013-08-04T13:30:00Z,26.2168,-96.4998,2.0,12.28192811,81.75100305,-99999.0,'11111222,11111222,99999999' 
TABS,ioos:station:wmo:42045:1,2013-08-04T14:00:00Z,26.2168,-96.4998,2.0,12.44037193,78.54410481,-99999.0,'11111222,11111222,99999999' 
TABS,ioos:station:wmo:42045:1,2013-08-04T14:30:00Z,26.2168,-96.4998,2.0,9.679562362,74.64260781,-99999.0,'11111222,11111222,99999999' 
TABS,ioos:station:wmo:42045:1,2013-08-04T15:00:00Z,26.2168,-96.4998,2.0,9.270139095,78.34313499,-99999.0,'11111222,11111222,99999999' 
TABS,ioos:station:wmo:42045:1,2013-08-04T15:30:00Z,26.2168,-96.4998,2.0,8.178006638,86.61071123,-99999.0,'11111222,11111222,99999999' 
TABS,ioos:station:wmo:42045:1,2013-08-04T16:00:00Z,26.2168,-96.4998,2.0,6.204060722,89.1118679,-99999.0,'11111222,11111222,99999999' 